CZ-6A DEB, 61311

Orbit data source: Space-Track

CZ-6A DEB, 61311 is space debris in LEO originally from a launch on Tue, 06 Aug 2024 UTC launched from the Taiyaun Space Center, China (TSC). Debris objects in space refer to the collection of defunct objects orbiting the Earth. Examples of debris include non-operational satellites, rocket bodies, and fragments generated from explosions, collisions, or faulty payload assembly.

Loading next visibility...
Identifier
61311, 2024-140TY
Orbit
LEO
Country
Flag of CNCN / PRC
Related business
Manufacturer
SAST
Mission
Spacecraft
Bus & Motor
Unknown
Mass
Unknown
Launch date (UTC)
2024-08-06 (2 years ago)
Launch vehicle
Unknown
Launch site
Taiyaun Space Center, China (TSC)
Object type
Payload
Rocket body
Debris
Shape & HBR
Unknown shape, 0.1 m
Radar Cross Section
Medium (>0.1 m² and <1 m²)

Expand to show TLE details & history
Last TLE update: 16 hours ago

TLE from 16 hours ago
0 CZ-6A DEB
1 61311U 24140TY  26171.31315905  .00005179  00000-0  57585-3 0  9992
2 61311  89.1188 277.5441 0160759 176.3794 183.8636 14.77971197 97390
Epoch: 2026-06-20T07:30Z
TLE epoch observation values (Epoch: 2026-06-20T07:30:56.941Z)
Latitude
-0.00003°
Longitude
-103.72273°
Altitude
751.404 km
Speed
7.419 km/s
True Right ascension
18h 30m 10s
True Declination
0° 00' 00"
Sunlit
Object was in full shadow at epoch
Visualization orbit readout
Latitude
Unknown
Longitude
Unknown
Altitude
Unknown
Speed
Unknown
Apparent Right ascension
Unknown
Apparent Declination
Unknown
Sunlit
N/A
Visualization observer readout
Local Sidereal Time
10:18:00
Azimuth
Unknown
Elevation
Unknown
Doppler factor
Unknown
Orbital elements
Apogee altitude
745.306 km
Perigee altitude
519.898 km
Semi-major axis
7,010.739 km
Eccentricity
0.01608
Inclination
89.1188°
RAAN
277.5441°
Arg. of periapsis
176.3794°
True anomaly
183.74191°
Mean anomaly
183.8636°
Eccentric anomaly
183.80252°
Mean motion
3.69741 °/min
Orbital period
97.37 mins
BSTAR
0.00057585
Loading maneuver chart data...
Computing Atmospheric mass density...
Loading historical data...
Loading historical data...
Loading historical data...
Loading historical data...
Loading historical data...
Loading historical data...
Loading historical data...

Documentation

Showing up to 5 results
|